Jerome, ID

8:59 PM MDT on May 28, 2017 (GMT -0600)
Jerome County

Weather History for KJER - January, 2014

Change the Weather History Date:

Thursday, January 2, 2014

  Actual Average Record
Temperature  
Mean Temperature 32 °F 26 °F  
Max Temperature 42 °F 33 °F 55 °F (1997)
Min Temperature 22 °F 19 °F -9 °F (1974)
Degree Days  
Heating Degree Days 33 39  
Month to date heating degree days 68 78  
Since 1 July heating degree days 2852 2808  
Cooling Degree Days 0 0  
Month to date cooling degree days 0 0  
Year to date cooling degree days 0 0  
Moisture  
Dew Point 24 °F    
Average Humidity 79    
Maximum Humidity 100    
Minimum Humidity 57    
Precipitation  
Precipitation 0.00 in 0.06 in 0.59 in (1997)
Month to date precipitation 0.00 0.12  
Year to date precipitation 0.00 0.12  
Sea Level Pressure  
Sea Level Pressure 30.36 in    
Wind  
Wind Speed 10 mph (NE)    
Max Wind Speed 20 mph    
Max Gust Speed 24 mph    
Visibility 10 miles    
Events      
T = Trace of Precipitation, MM = Missing Value Source: NWS Daily Summary

Daily Weather History Graph

Daily Weather History Graph

Search for Another Location

Airport or City:

Trip Planner

Search our weather history database for the weather conditions in past years. The results will help you decide how hot, cold, wet, or windy it might be!

Date:

Astronomy

Jan. 02, 2014 Rise Set
Actual Time 8:08 AM MST 5:15 PM MST
Civil Twilight 7:36 AM MST 5:47 PM MST
Nautical Twilight 7:00 AM MST 6:23 PM MST
Astronomical Twilight 6:26 AM MST 6:57 PM MST
Moon 8:50 AM MST (1/2) 7:20 PM MST (1/2)
Length of Visible Light 10h 11m
Length of Day
9h 07m
Waxing Crescent, 3% of the Moon is Illuminated
Jan 2
Waxing Crescent
Jan 7
First Quarter
Jan 15
Full
Jan 23
Last Quarter
Jan 30
New

Hourly Weather History & Observations

Time (MST) Temp. Windchill Dew Point Humidity Pressure Visibility Wind Dir Wind Speed Gust Speed Precip Events Conditions
12:53 AM 23.0 °F 9.6 °F 21.0 °F 92% 30.44 in 10.0 mi NE 16.1 mph - N/A   Clear
1:53 AM 23.0 °F 10.6 °F 21.0 °F 92% 30.44 in 10.0 mi NE 13.8 mph - N/A   Clear
2:53 AM 23.0 °F 11.1 °F 21.0 °F 92% 30.44 in 10.0 mi ENE 12.7 mph - N/A   Clear
3:53 AM 23.0 °F 9.6 °F 21.0 °F 92% 30.43 in 10.0 mi NE 16.1 mph - N/A   Clear
4:53 AM 23.0 °F 9.2 °F 19.9 °F 88% 30.43 in 10.0 mi NE 17.3 mph - N/A   Clear
5:53 AM 23.0 °F 9.2 °F 21.0 °F 92% 30.43 in 10.0 mi ENE 17.3 mph - N/A   Clear
6:53 AM 21.9 °F 9.2 °F 21.0 °F 96% 30.44 in 10.0 mi ENE 13.8 mph - N/A   Clear
7:53 AM 23.0 °F 10.1 °F 21.0 °F 92% 30.42 in 10.0 mi NE 15.0 mph - N/A   Clear
8:53 AM 24.1 °F 11.5 °F 21.0 °F 88% 30.43 in 10.0 mi ENE 15.0 mph - N/A   Clear
9:53 AM 27.0 °F 14.3 °F 23.0 °F 85% 30.44 in 10.0 mi NE 17.3 mph - N/A   Clear
10:53 AM 30.9 °F 19.8 °F 26.1 °F 82% 30.43 in 10.0 mi NE 16.1 mph - N/A   Clear
11:53 AM 34.0 °F 25.0 °F 27.0 °F 75% 30.41 in 10.0 mi NE 12.7 mph - N/A   Clear
12:53 PM 37.9 °F 30.5 °F 28.0 °F 68% 30.37 in 10.0 mi NE 11.5 mph - N/A   Clear
1:53 PM 41.0 °F 37.1 °F 28.0 °F 60% 30.34 in 10.0 mi NE 5.8 mph - N/A   Clear
2:53 PM 42.1 °F - 28.0 °F 58% 30.31 in 10.0 mi Calm Calm - N/A   Clear
3:53 PM 41.0 °F 39.0 °F 28.0 °F 60% 30.31 in 10.0 mi ESE 3.5 mph - N/A   Clear
4:53 PM 39.9 °F - 28.0 °F 63% 30.30 in 10.0 mi Calm Calm - N/A   Clear
5:53 PM 34.0 °F - 26.1 °F 73% 30.31 in 10.0 mi Calm Calm - N/A   Clear
6:53 PM 32.0 °F 27.5 °F 26.1 °F 79% 30.32 in 10.0 mi North 4.6 mph - N/A   Clear
7:53 PM 30.0 °F 22.4 °F 26.1 °F 85% 30.30 in 10.0 mi NNE 8.1 mph - N/A   Clear
8:53 PM 32.0 °F 24.8 °F 27.0 °F 82% 30.27 in 10.0 mi ENE 8.1 mph - N/A   Clear
9:53 PM 28.9 °F 20.4 °F 25.0 °F 85% 30.27 in 10.0 mi NE 9.2 mph - N/A   Clear
10:53 PM 28.9 °F 20.4 °F 25.0 °F 85% 30.23 in 10.0 mi ENE 9.2 mph - N/A   Clear
11:53 PM 27.0 °F 18.7 °F 24.1 °F 89% 30.21 in 10.0 mi ENE 8.1 mph - N/A   Clear